Date String (YYYY-MM-DD hh:mm:ss) UTC,Instrument flags,absolute air pressure of the measurement (hPa),sample flow rate (lpm),inlet stack bypass flow (lpm),air temperature of the measurement (°C),ambient temperature measured by the external sensor (°C),aerosol sample conditioner tube jacket temperature (°C),OPC LED temperature (°C),internal box temperature (°C),relative humidity of the measurement (%),span deviation,mass concentration of particles derived from Lorenz-Mie calculation of OPC scattering (μg/m³),mass concentration of particles derived from Lorenz-Mie calculation of OPC scattering (μg/m³),mass concentration of particles derived from Lorenz-Mie calculation of OPC scattering (μg/m³)
DateTimeUTC,F1_M11,P_M11,Q1_M11,Q2_M11,T1_M11,T2_M11,T3_M11,T4_M11,T5_M11,U1_M11,ZSPAN_M11,X2_M11,X0_M11,X1_M11
2023-07-20 11:00:00,SystemResetWarning,0838.5,5.00,000.00,029.7,028.4,000.0,038.1,031.3,32.7,0000.0,0001.69,0003.13,0001.13
2023-07-20 11:01:00,SystemResetWarning,0838.6,5.00,000.00,029.7,028.4,000.0,038.1,031.3,32.5,0000.0,0001.70,0003.23,0001.13
2023-07-20 11:02:00,SystemResetWarning,0838.6,5.00,000.00,029.7,028.4,000.0,038.1,031.3,32.6,0000.0,0001.68,0003.26,0001.13
2023-07-20 11:03:00,SystemResetWarning,0838.6,5.00,000.00,029.7,028.4,000.0,038.1,031.3,32.9,0000.0,0001.68,0003.19,0001.15
2023-07-20 11:04:00,SystemResetWarning,0838.7,5.00,000.00,029.7,028.4,000.0,038.2,031.3,32.4,0000.0,0001.74,0003.22,0001.17
2023-07-20 11:05:00,SystemResetWarning,0838.7,5.00,000.00,029.7,028.4,000.0,038.2,031.3,32.3,0000.0,0001.77,0003.25,0001.19
2023-07-20 11:06:00,SystemResetWarning,0838.8,5.01,000.00,029.8,028.4,000.0,038.2,031.3,32.2,0000.0,0001.77,0003.52,0001.20
2023-07-20 11:07:00,SystemResetWarning,0838.8,5.01,000.00,029.8,028.4,000.0,038.2,031.3,32.0,0000.0,0001.80,0004.01,0001.20
2023-07-20 11:08:00,SystemResetWarning,0838.8,5.00,000.00,029.8,028.5,000.0,038.2,031.4,31.7,0000.0,0001.81,0004.07,0001.19
2023-07-20 11:09:00,SystemResetWarning,0838.7,5.00,000.00,029.8,028.5,000.0,038.2,031.4,31.9,0000.0,0001.80,0004.11,0001.19
2023-07-20 11:10:00,SystemResetWarning,0838.7,5.00,000.00,029.8,028.5,000.0,038.2,031.4,32.0,0000.0,0001.73,0003.94,0001.19
2023-07-20 11:11:00,SystemResetWarning,0838.7,4.99,000.00,029.8,028.5,000.0,038.2,031.4,31.0,0000.0,0001.74,0003.96,0001.19
2023-07-20 11:12:00,SystemResetWarning,0838.6,5.00,000.00,029.8,028.6,000.0,038.3,031.4,31.0,0000.0,0001.74,0003.96,0001.19
2023-07-20 11:13:00,SystemResetWarning,0838.6,5.00,000.00,029.9,028.5,000.0,038.3,031.4,30.6,0000.0,0001.78,0004.03,0001.19
2023-07-20 11:14:00,SystemResetWarning,0838.6,5.00,000.00,029.9,027.1,000.0,038.2,031.3,30.6,0000.0,0001.77,0003.98,0001.18
2023-07-20 11:15:00,SystemResetWarning,0838.6,5.00,000.00,029.8,025.6,000.0,038.0,031.0,31.0,0000.0,0001.70,0003.90,0001.16
2023-07-20 11:16:00,SystemResetWarning,0838.6,5.01,000.00,029.6,025.2,000.0,038.0,030.7,30.9,0000.0,0001.68,0004.02,0001.15
2023-07-20 11:17:00,SystemResetWarning,0838.6,5.02,000.00,029.5,025.5,000.0,038.0,030.5,31.2,0000.0,0001.72,0004.11,0001.15
2023-07-20 11:18:00,SystemResetWarning,0838.6,5.00,000.00,029.4,025.9,000.0,038.0,030.6,31.7,0000.0,0001.69,0003.31,0001.13
2023-07-20 11:19:00,SystemResetWarning,0838.6,5.00,000.00,029.4,026.3,000.0,038.0,030.7,31.8,0000.0,0001.65,0003.12,0001.12
2023-07-20 11:20:00,SystemResetWarning,0838.5,5.00,000.00,029.4,026.6,000.0,038.0,030.8,31.7,0000.0,0001.62,0002.98,0001.12
2023-07-20 11:21:00,SystemResetWarning,0838.4,5.00,000.00,029.4,027.0,000.0,038.0,030.8,31.3,0000.0,0001.60,0002.98,0001.10
2023-07-20 11:22:00,SystemResetWarning,0838.4,5.00,000.00,029.4,027.2,000.0,038.0,030.9,31.8,0000.0,0001.57,0002.98,0001.09
2023-07-20 11:23:00,SystemResetWarning,0838.4,5.00,000.00,029.4,027.4,000.0,038.0,030.9,31.9,0000.0,0001.51,0002.80,0001.08
2023-07-20 11:24:00,SystemResetWarning,0838.4,5.00,000.00,029.4,027.6,000.0,038.0,031.0,32.3,0000.0,0001.47,0002.71,0001.05
2023-07-20 11:25:00,SystemResetWarning,0838.4,5.00,000.00,029.4,027.7,000.0,038.0,031.0,32.1,0000.0,0001.40,0002.63,0001.02
2023-07-20 11:26:00,SystemResetWarning,0838.3,5.00,000.00,029.5,027.9,000.0,038.0,031.0,32.3,0000.0,0001.37,0002.64,0001.00
2023-07-20 11:27:00,SystemResetWarning,0838.2,5.01,000.00,029.5,027.9,000.0,038.0,031.1,32.8,0000.0,0001.34,0002.41,0000.98
2023-07-20 11:28:00,SystemResetWarning,0838.1,5.00,000.00,029.5,028.0,000.0,038.0,031.1,33.4,0000.0,0001.28,0002.20,0000.97
2023-07-20 11:29:00,SystemResetWarning,0838.0,5.00,000.00,029.5,028.0,000.0,038.0,031.1,33.6,0000.0,0001.28,0002.21,0000.96
2023-07-20 11:30:00,SystemResetWarning,0838.0,4.99,000.00,029.5,028.1,000.0,038.0,031.1,34.0,0000.0,0001.29,0002.26,0000.95
2023-07-20 11:31:00,SystemResetWarning,0838.0,5.00,000.00,029.5,028.1,000.0,038.0,031.1,34.1,0000.0,0001.29,0002.58,0000.95
2023-07-20 11:32:00,SystemResetWarning,0837.8,4.99,000.00,029.5,028.1,000.0,038.0,031.1,34.2,0000.0,0001.28,0002.55,0000.94
2023-07-20 11:33:00,SystemResetWarning,0837.8,5.00,000.00,029.6,028.2,000.0,038.0,031.1,34.4,0000.0,0001.26,0002.46,0000.92
2023-07-20 11:34:00,SystemResetWarning,0837.8,5.00,000.00,029.6,028.2,000.0,038.0,031.2,34.3,0000.0,0001.26,0002.54,0000.90
2023-07-20 11:35:00,SystemResetWarning,0837.8,5.00,000.00,029.6,028.2,000.0,038.1,031.2,34.3,0000.0,0001.29,0002.56,0000.92
2023-07-20 11:36:00,SystemResetWarning,0837.7,5.01,000.00,029.6,028.2,000.0,038.1,031.2,34.2,0000.0,0001.36,0002.73,0000.93
2023-07-20 11:37:00,SystemResetWarning,0837.6,5.01,000.00,029.6,028.2,000.0,038.1,031.2,34.2,0000.0,0001.36,0002.69,0000.93
2023-07-20 11:38:00,SystemResetWarning,0837.6,5.00,000.00,029.6,028.2,000.0,038.1,031.2,34.2,0000.0,0001.34,0002.61,0000.93
2023-07-20 11:39:00,SystemResetWarning,0837.5,4.99,000.00,029.6,028.2,000.0,038.1,031.2,34.2,0000.0,0001.35,0002.66,0000.93
2023-07-20 11:40:00,SystemResetWarning,0837.5,4.99,000.00,029.6,028.2,000.0,038.1,031.2,34.3,0000.0,0001.37,0002.77,0000.94
2023-07-20 11:41:00,SystemResetWarning,0837.6,5.00,000.00,029.7,028.2,000.0,038.1,031.2,34.2,0000.0,0001.40,0002.84,0000.95
2023-07-20 11:42:00,SystemResetWarning,0837.7,5.00,000.00,029.7,028.2,000.0,038.1,031.2,34.3,0000.0,0001.47,0002.81,0000.97
2023-07-20 11:43:00,SystemResetWarning,0837.6,4.99,000.00,029.7,028.2,000.0,038.1,031.2,34.2,0000.0,0001.59,0003.05,0001.00
2023-07-20 11:44:00,SystemResetWarning,0837.5,5.00,000.00,029.7,028.2,000.0,038.1,031.3,34.2,0000.0,0001.72,0003.34,0001.02
2023-07-20 11:45:00,SystemResetWarning,0837.5,4.99,000.00,029.7,028.2,000.0,038.1,031.2,34.0,0000.0,0001.82,0003.55,0001.07
2023-07-20 11:46:00,SystemResetWarning,0837.6,5.00,000.00,029.7,028.2,000.0,038.2,031.2,34.0,0000.0,0001.88,0003.63,0001.09
2023-07-20 11:47:00,SystemResetWarning,0837.7,5.01,000.00,029.7,028.2,000.0,038.2,031.3,33.8,0000.0,0001.94,0003.65,0001.11
2023-07-20 11:48:00,SystemResetWarning,0837.7,5.01,000.00,029.7,028.2,000.0,038.2,031.3,33.9,0000.0,0002.00,0003.74,0001.15
2023-07-20 11:49:00,SystemResetWarning,0837.8,4.99,000.00,029.7,028.2,000.0,038.2,031.3,33.8,0000.0,0002.15,0004.10,0001.20
2023-07-20 11:50:00,SystemResetWarning,0837.8,4.99,000.00,029.7,028.3,000.0,038.2,031.3,33.7,0000.0,0002.25,0004.33,0001.24
2023-07-20 11:51:00,SystemResetWarning,0837.8,4.99,000.00,029.7,028.3,000.0,038.2,031.3,33.5,0000.0,0002.27,0004.29,0001.27
2023-07-20 11:52:00,SystemResetWarning,0837.8,5.00,000.00,029.7,028.3,000.0,038.2,031.3,33.4,0000.0,0002.34,0004.41,0001.29
2023-07-20 11:53:00,SystemResetWarning,0837.8,5.01,000.00,029.7,028.3,000.0,038.2,031.3,33.5,0000.0,0002.33,0005.22,0001.30
2023-07-20 11:54:00,SystemResetWarning,0837.8,5.00,000.00,029.7,028.3,000.0,038.2,031.3,33.5,0000.0,0002.29,0005.75,0001.30
2023-07-20 11:55:00,SystemResetWarning,0837.8,5.00,000.00,029.8,028.3,000.0,038.2,031.3,33.6,0000.0,0002.20,0005.59,0001.29
2023-07-20 11:56:00,SystemResetWarning,0837.8,5.00,000.00,029.8,028.4,000.0,038.2,031.3,33.4,0000.0,0002.18,0005.47,0001.29
2023-07-20 11:57:00,SystemResetWarning,0837.8,5.01,000.00,029.8,028.4,000.0,038.2,031.3,33.6,0000.0,0002.19,0005.53,0001.30
2023-07-20 11:58:00,SystemResetWarning,0837.8,4.99,000.00,029.8,028.4,000.0,038.3,031.4,33.8,0000.0,0002.15,0005.61,0001.29
2023-07-20 11:59:00,SystemResetWarning,0837.7,4.99,000.00,029.8,028.4,000.0,038.3,031.3,33.9,0000.0,0002.12,0005.56,0001.28
